Weather History for Pottstown, PA

Change the Weather History Date:

Sunday, March 23, 2014

  Actual Average (KRDG) Record (KRDG)
Temperature  
Mean Temperature 35 °F 44 °F  
Max Temperature 43 °F 53 °F 80 °F (2012)
Min Temperature 26 °F 34 °F 14 °F (1906)
Degree Days  
Heating Degree Days 30 22  
Month to date heating degree days 583  
Since 1 July heating degree days 4625  
Cooling Degree Days 0 0  
Month to date cooling degree days 0  
Year to date cooling degree days 0  
Moisture  
Dew Point 20 °F    
Average Humidity 49    
Maximum Humidity 57    
Minimum Humidity 35    
Precipitation  
Precipitation 0.00 in 0.12 in 2.18 in (1903)
Month to date precipitation 2.42  
Year to date precipitation 7.95  
Sea Level Pressure  
Sea Level Pressure 30.06 in    
Wind  
Wind Speed 8 mph (NW)    
Max Wind Speed 14 mph    
Max Gust Speed 20 mph    
Visibility 10 miles    
Events      
T = Trace of Precipitation, MM = Missing Value Source: NWS Daily Summary

Daily Weather History Graph

Daily Weather History Graph

Search for Another Location

Airport:

Trip Planner

Search our weather history database for the weather conditions in past years. The results will help you decide how hot, cold, wet, or windy it might be!

Date:

Astronomy

Mar. 23, 2014 Rise Set
Actual Time 7:00 AM EDT 7:17 PM EDT
Civil Twilight 6:33 AM EDT 7:44 PM EDT
Nautical Twilight 6:01 AM EDT 8:16 PM EDT
Astronomical Twilight 5:29 AM EDT 8:49 PM EDT
Moon 1:32 AM EDT (3/23) 11:39 AM EDT (3/23)
Length of Visible Light 13h 10m
Length of Day
12h 16m
Waning Gibbous, 55% of the Moon is Illuminated
Mar 23
Waning Gibbous
Mar 23
Last Quarter
Mar 30
New
Apr 7
First Quarter
Apr 15
Full

Hourly Weather History & Observations

Time (EDT) Temp. Windchill Dew Point Humidity Pressure Visibility Wind Dir Wind Speed Gust Speed Precip Events Conditions
12:54 AM 39.9 °F 36.7 °F 25.0 °F 55% 30.02 in 10.0 mi WNW 4.6 mph - N/A   Clear
1:54 AM 42.1 °F 37.7 °F 26.1 °F 53% 30.03 in 10.0 mi NW 6.9 mph - N/A   Clear
2:54 AM 41.0 °F 35.8 °F 25.0 °F 53% 30.04 in 10.0 mi WNW 8.1 mph - N/A   Clear
3:54 AM 39.9 °F 33.9 °F 24.1 °F 53% 30.04 in 10.0 mi NNW 9.2 mph - N/A   Clear
4:54 AM 37.9 °F 31.5 °F 24.1 °F 57% 30.05 in 10.0 mi NW 9.2 mph - N/A   Clear
5:54 AM 37.0 °F 31.0 °F 21.9 °F 54% 30.06 in 10.0 mi NNW 8.1 mph - N/A   Clear
6:54 AM 37.0 °F 33.3 °F 19.9 °F 50% 30.06 in 10.0 mi NNW 4.6 mph - N/A   Clear
7:54 AM 37.0 °F 34.5 °F 21.0 °F 52% 30.08 in 10.0 mi West 3.5 mph - N/A   Clear
8:54 AM 37.0 °F 32.4 °F 23.0 °F 57% 30.09 in 10.0 mi WNW 5.8 mph - N/A   Scattered Clouds
9:54 AM 39.0 °F 34.8 °F 23.0 °F 53% 30.09 in 10.0 mi WNW 5.8 mph - N/A   Partly Cloudy
10:54 AM 39.9 °F 35.8 °F 24.1 °F 53% 30.09 in 10.0 mi NW 5.8 mph - N/A   Overcast
11:54 AM 41.0 °F 35.8 °F 24.1 °F 51% 30.07 in 10.0 mi North 8.1 mph - N/A   Overcast
12:54 PM 42.1 °F 36.6 °F 23.0 °F 47% 30.06 in 10.0 mi WNW 9.2 mph - N/A   Overcast
1:54 PM 42.1 °F 36.6 °F 23.0 °F 47% 30.04 in 10.0 mi West 9.2 mph 16.1 mph N/A   Overcast
2:54 PM 42.1 °F 36.6 °F 23.0 °F 47% 30.02 in 10.0 mi NW 9.2 mph - N/A   Mostly Cloudy
3:54 PM 42.1 °F 35.7 °F 21.0 °F 43% 30.01 in 10.0 mi NNW 11.5 mph - N/A   Mostly Cloudy
4:54 PM 41.0 °F 35.2 °F 19.9 °F 43% 30.00 in 10.0 mi NNW 9.2 mph 19.6 mph N/A   Overcast
5:54 PM 39.9 °F 34.5 °F 16.0 °F 38% 30.00 in 10.0 mi North 8.1 mph - N/A   Scattered Clouds
6:54 PM 37.9 °F 30.5 °F 12.0 °F 35% 30.02 in 10.0 mi NNW 11.5 mph 19.6 mph N/A   Clear
7:54 PM 34.0 °F 25.0 °F 12.0 °F 40% 30.05 in 10.0 mi NNE 12.7 mph 18.4 mph N/A   Clear
8:54 PM 32.0 °F 22.5 °F 10.9 °F 42% 30.08 in 10.0 mi North 12.7 mph - N/A   Clear
9:54 PM 30.0 °F 19.5 °F 10.9 °F 45% 30.12 in 10.0 mi North 13.8 mph - N/A   Clear
10:54 PM 28.0 °F 18.6 °F 10.9 °F 49% 30.15 in 10.0 mi North 10.4 mph - N/A   Clear
11:54 PM 26.1 °F 16.2 °F 10.9 °F 53% 30.18 in 10.0 mi North 10.4 mph - N/A   Clear